When you browse on this site, cookies collect data to enhance your experience and personalize the content and advertising you see.
Visit our Privacy Policy to learn more. By continuing to use the site, you agree to this use of cookies and data.
  • In United Kingdom
  • List of Countries
  • For 7 days
  • Water Temperature
  • Weather Map
  • Weather Widgets
  • user-avatar
    Login

    Hourly Weather Miskolc

    Today, 2 April, Thursday

    Time Temperature Precipitation Wind Pressure Humidity
    00:00 +2°C° 0 mm 1 mps 750 mmHg 51%
    01:00 +2°C° 0 mm 1 mps 750 mmHg 52%
    02:00 +1°C° 0 mm 1 mps 749 mmHg 53%
    03:00 +1°C° 0 mm 1 mps 749 mmHg 54%
    04:00 +1°C° 0 mm 1 mps 749 mmHg 54%
    05:00 +2°C° 0 mm 1 mps 749 mmHg 52%
    06:00 +3°C° 0 mm 1 mps 749 mmHg 50%
    07:00 +4°C° 0 mm 1 mps 749 mmHg 48%
    08:00 +5°C° 0 mm 2 mps 749 mmHg 44%
    09:00 +6°C° 0 mm 2 mps 749 mmHg 39%
    10:00 +8°C° 0 mm 3 mps 749 mmHg 35%
    11:00 +9°C° 0 mm 3 mps 748 mmHg 35%
    12:00 +8°C° 0 mm 4 mps 748 mmHg 35%
    13:00 +10°C° 0 mm 4 mps 748 mmHg 34%
    14:00 +10°C° 0 mm 4 mps 747 mmHg 35%
    15:00 +9°C° 0 mm 3 mps 747 mmHg 36%
    16:00 +9°C° 0 mm 3 mps 746 mmHg 37%
    17:00 +8°C° 0 mm 3 mps 746 mmHg 42%
    18:00 +6°C° 0 mm 2 mps 746 mmHg 47%
    19:00 +4°C° 0 mm 2 mps 746 mmHg 52%
    20:00 +4°C° 0 mm 2 mps 746 mmHg 55%
    21:00 +3°C° 0 mm 2 mps 746 mmHg 57%
    22:00 +3°C° 0 mm 2 mps 746 mmHg 60%
    23:00 +3°C° 0 mm 2 mps 746 mmHg 63%

    Tomorrow, 3 April, Friday

    Time Temperature Precipitation Wind Pressure Humidity
    00:00 +2°C° 0 mm 2 mps 746 mmHg 66%
    01:00 +2°C° 0 mm 2 mps 746 mmHg 69%
    02:00 +2°C° 0 mm 2 mps 745 mmHg 70%
    03:00 +3°C° 0 mm 1 mps 745 mmHg 72%
    04:00 +2°C° 0 mm 1 mps 745 mmHg 74%
    05:00 +2°C° 0 mm 2 mps 745 mmHg 71%
    06:00 +3°C° 0 mm 2 mps 746 mmHg 69%
    07:00 +4°C° 0 mm 2 mps 746 mmHg 67%
    08:00 +5°C° 0 mm 3 mps 746 mmHg 62%
    09:00 +8°C° 0 mm 3 mps 746 mmHg 57%
    10:00 +10°C° 0 mm 4 mps 746 mmHg 52%
    11:00 +11°C° 0 mm 4 mps 746 mmHg 50%
    12:00 +12°C° 0 mm 4 mps 746 mmHg 48%
    13:00 +13°C° 0 mm 4 mps 746 mmHg 46%
    14:00 +13°C° 0 mm 4 mps 746 mmHg 46%
    15:00 +13°C° 0 mm 4 mps 746 mmHg 46%
    16:00 +13°C° 0 mm 3 mps 746 mmHg 45%
    17:00 +11°C° 0 mm 3 mps 746 mmHg 52%
    18:00 +9°C° 0 mm 3 mps 747 mmHg 58%
    19:00 +8°C° 0 mm 2 mps 747 mmHg 65%
    20:00 +7°C° 0 mm 2 mps 747 mmHg 68%
    21:00 +6°C° 0 mm 2 mps 748 mmHg 70%
    22:00 +7°C° 0 mm 1 mps 748 mmHg 73%
    23:00 +6°C° 0 mm 2 mps 749 mmHg 75%

    Day after tomorrow, 4 April, Saturday

    Time Temperature Precipitation Wind Pressure Humidity
    00:00 +5°C° 0 mm 2 mps 749 mmHg 78%
    01:00 +5°C° 0 mm 2 mps 749 mmHg 80%
    02:00 +5°C° 0 mm 2 mps 750 mmHg 83%
    03:00 +4°C° 0 mm 2 mps 750 mmHg 86%
    04:00 +4°C° 0 mm 2 mps 750 mmHg 88%
    05:00 +5°C° 0 mm 2 mps 751 mmHg 85%
    06:00 +6°C° 0 mm 2 mps 751 mmHg 81%
    07:00 +6°C° 0 mm 2 mps 752 mmHg 77%
    08:00 +8°C° 0 mm 2 mps 752 mmHg 70%
    09:00 +9°C° 0 mm 3 mps 752 mmHg 64%
    10:00 +10°C° 0 mm 3 mps 753 mmHg 57%
    11:00 +11°C° 0 mm 3 mps 753 mmHg 53%
    12:00 +12°C° 0 mm 3 mps 753 mmHg 50%
    13:00 +12°C° 0 mm 3 mps 754 mmHg 46%
    14:00 +12°C° 0 mm 3 mps 754 mmHg 45%
    15:00 +12°C° 0 mm 4 mps 754 mmHg 45%
    16:00 +12°C° 0 mm 4 mps 754 mmHg 45%
    17:00 +11°C° 0 mm 4 mps 754 mmHg 50%
    18:00 +8°C° 0 mm 4 mps 755 mmHg 55%
    19:00 +6°C° 0 mm 4 mps 755 mmHg 59%
    20:00 +6°C° 0 mm 4 mps 756 mmHg 60%
    21:00 +5°C° 0 mm 4 mps 757 mmHg 62%
    22:00 +5°C° 0 mm 4 mps 757 mmHg 63%
    23:00 +4°C° 0 mm 4 mps 757 mmHg 63%

    5 April, Sunday

    Time Temperature Precipitation Wind Pressure Humidity
    00:00 +4°C° 0 mm 4 mps 758 mmHg 64%
    01:00 +3°C° 0 mm 4 mps 758 mmHg 65%
    02:00 +3°C° 0 mm 4 mps 758 mmHg 64%
    03:00 +3°C° 0 mm 4 mps 758 mmHg 63%
    04:00 +1°C° 0 mm 4 mps 758 mmHg 62%
    05:00 +2°C° 0 mm 5 mps 758 mmHg 58%
    06:00 +3°C° 0 mm 5 mps 758 mmHg 54%
    07:00 +3°C° 0 mm 5 mps 759 mmHg 50%
    08:00 +6°C° 0 mm 5 mps 759 mmHg 47%
    09:00 +8°C° 0 mm 5 mps 759 mmHg 43%
    10:00 +10°C° 0 mm 5 mps 759 mmHg 40%
    11:00 +12°C° 0 mm 5 mps 759 mmHg 40%
    12:00 +12°C° 0 mm 4 mps 758 mmHg 40%
    13:00 +13°C° 0 mm 4 mps 758 mmHg 41%
    14:00 +13°C° 0 mm 4 mps 758 mmHg 42%
    15:00 +13°C° 0 mm 4 mps 758 mmHg 43%
    16:00 +13°C° 0 mm 3 mps 757 mmHg 45%
    17:00 +12°C° 0 mm 3 mps 758 mmHg 50%
    18:00 +10°C° 0 mm 3 mps 758 mmHg 55%
    19:00 +8°C° 0 mm 2 mps 758 mmHg 61%
    20:00 +8°C° 0 mm 2 mps 758 mmHg 61%
    21:00 +7°C° 0 mm 2 mps 759 mmHg 61%
    22:00 +7°C° 0 mm 2 mps 759 mmHg 61%
    23:00 +6°C° 0 mm 2 mps 759 mmHg 62%

    6 April, Monday

    Time Temperature Precipitation Wind Pressure Humidity
    00:00 +6°C° 0 mm 2 mps 760 mmHg 64%
    01:00 +5°C° 0 mm 2 mps 760 mmHg 65%
    02:00 +5°C° 0 mm 2 mps 760 mmHg 65%
    03:00 +5°C° 0 mm 1 mps 760 mmHg 65%
    04:00 +5°C° 0 mm 1 mps 760 mmHg 65%
    05:00 +6°C° 0 mm 1 mps 760 mmHg 62%
    06:00 +6°C° 0 mm 1 mps 761 mmHg 59%
    07:00 +7°C° 0 mm 1 mps 761 mmHg 57%
    08:00 +9°C° 0 mm 1 mps 761 mmHg 52%
    09:00 +11°C° 0 mm 1 mps 761 mmHg 47%
    10:00 +13°C° 0 mm 1 mps 761 mmHg 43%
    11:00 +13°C° 0 mm 1 mps 761 mmHg 41%
    12:00 +14°C° 0 mm 2 mps 761 mmHg 39%
    13:00 +15°C° 0 mm 2 mps 761 mmHg 38%
    14:00 +15°C° 0 mm 2 mps 761 mmHg 38%
    15:00 +15°C° 0 mm 1 mps 760 mmHg 37%
    16:00 +15°C° 0 mm 1 mps 760 mmHg 37%
    17:00 +13°C° 0 mm 1 mps 760 mmHg 42%
    18:00 +12°C° 0 mm 1 mps 760 mmHg 47%
    19:00 +10°C° 0 mm 1 mps 760 mmHg 52%
    20:00 +9°C° 0 mm 1 mps 760 mmHg 53%
    21:00 +9°C° 0 mm 1 mps 761 mmHg 53%
    22:00 +8°C° 0 mm 1 mps 761 mmHg 54%
    23:00 +8°C° 0 mm 1 mps 761 mmHg 55%

    7 April, Tuesday

    Time Temperature Precipitation Wind Pressure Humidity
    00:00 +7°C° 0 mm 1 mps 761 mmHg 56%
    01:00 +7°C° 0 mm 1 mps 761 mmHg 57%
    02:00 +7°C° 0 mm 1 mps 762 mmHg 60%
    03:00 +6°C° 0 mm 1 mps 762 mmHg 62%
    04:00 +6°C° 0 mm 1 mps 762 mmHg 64%
    05:00 +7°C° 0 mm 1 mps 762 mmHg 62%
    06:00 +8°C° 0 mm 1 mps 762 mmHg 59%
    07:00 +9°C° 0 mm 1 mps 762 mmHg 57%
    08:00 +11°C° 0 mm 1 mps 762 mmHg 51%
    09:00 +13°C° 0 mm 1 mps 762 mmHg 44%
    10:00 +15°C° 0 mm 1 mps 762 mmHg 38%
    11:00 +16°C° 0 mm 1 mps 762 mmHg 37%
    12:00 +18°C° 0 mm 1 mps 762 mmHg 35%
    13:00 +19°C° 0 mm 1 mps 762 mmHg 33%
    14:00 +19°C° 0 mm 1 mps 761 mmHg 34%
    15:00 +18°C° 0 mm 1 mps 761 mmHg 34%
    16:00 +18°C° 0 mm 1 mps 761 mmHg 34%
    17:00 +15°C° 0 mm 1 mps 760 mmHg 40%
    18:00 +13°C° 0 mm 1 mps 760 mmHg 45%
    19:00 +10°C° 0 mm 0 mps 760 mmHg 51%
    20:00 +11°C° 0 mm 1 mps 760 mmHg 53%
    21:00 +10°C° 0 mm 1 mps 760 mmHg 54%
    22:00 +10°C° 0 mm 1 mps 761 mmHg 55%
    23:00 +9°C° 0 mm 1 mps 761 mmHg 56%
    Show more